Location: Betra
(48.4113°N, 8.6634°E)
Time: 22:14:56
(UTC+00:00)

Cosmos 1408 - Pass Details

Date: 18 August 2024
Orbit: 314 x 326 km, 82.5° (Epoch: 12 September)

Event Time Altitude Azimuth Distance (km) Brightness Sun altitude
Rises 00:21:54 0° 357° (N) 2,071 6.9 -27.5°
Reaches altitude 10° 00:23:55 10° 7° (N) 1,230 5.6 -27.4°
Enters shadow 00:23:59 11° 8° (N) 1,201 5.5 -27.4°
